Columbus Municipal Airport
KBAK : now visible

Airfield :











YOU CAN JOIN US ON...

 
LOGIN :

Register | Disclaimer

   EN    FR    IT 

 









Legend :    VFR   Marginal VFR   IFR   Intensive IFR   Very Intensive IFR
Visi :
Ceiling :
>= 8 km
>= 3000ft
5 to 8 km
1000 to 3000 ft
1500m to 5 km
500 to 1000 ft
800 to 1500m
200 to 500 ft
< 800m
< 200 ft
Symbols :   Thunderstorms  Fog  Heavy snow  Heavy precipitations  Wind > 20 kt






- Airport Elevation : 656 ft


KBAK - Columbus Municipal

CURRENT METAR :
  • 211526Z 33009KT 2 1/2SM -RA BR BKN006 OVC010 15/14 A3020

EXPIRED METARs :
  • 211446Z 00000KT 6SM BR BKN007 OVC012 17/16 A3018
  • 211345Z 20004KT 7SM BKN011 OVC021 17/15 A3016
  • 211245Z 17005KT 7SM BKN027 17/15 A3014

TAF N/A
KZID FIR / North America



MET'MAP, your aeronautical weather chart ! - Copyright ORBIFLY December 2007 - Disclaimer

ORBIFLY MET'MAP TEAM :

Programming & Development : Alexandra Zaïnal
Concept & original design : Baudouin d'Aumeries
Assistance for programming : Marc-Olivier Méhu
Technical & hardware support : Manuel Goepfert

Contact : metmap@orbifly.com




SOURCES & CREDITS :

   NOAA       Earth
Advisory